This is the latest recevied weather packets stored in our database for station/object WB9TLH-11. If no packets are shown the sender has not sent any weather packets the latest 10 day(s).
| Time | Temp. | Humidity | Pressure | Rain* | Wind** | Luminosity | Snow |
|---|---|---|---|---|---|---|---|
| 1778031351 | 8.33° C | 90% | 1007.3 hPa | 3.05 mm | - | - | - |
| 1778031051 | 8.33° C | 90% | 1007.4 hPa | 3.05 mm | - | - | - |
| 1778030751 | 8.33° C | 90% | 1007.4 hPa | 3.3 mm | - | - | - |
| 1778030451 | 8.33° C | 90% | 1007.4 hPa | 4.32 mm | - | - | - |
| 1778030150 | 8.33° C | 90% | 1007.3 hPa | 4.32 mm | - | - | - |
| 1778029851 | 8.33° C | 90% | 1007.5 hPa | 4.32 mm | - | - | - |
| 1778029551 | 8.33° C | 90% | 1007.4 hPa | 4.57 mm | - | - | - |
| 1778029251 | 8.33° C | 90% | 1007.7 hPa | 4.57 mm | - | - | - |
| 1778028951 | 8.33° C | 90% | 1007.8 hPa | 4.83 mm | - | - | - |
| 1778028651 | 8.33° C | 89% | 1007.6 hPa | 5.08 mm | - | - | - |
| 1778028351 | 8.89° C | 90% | 1007.7 hPa | 4.57 mm | - | - | - |
| 1778028051 | 8.89° C | 90% | 1007.5 hPa | 3.81 mm | - | - | - |
| 1778027751 | 8.89° C | 90% | 1008.1 hPa | 3.3 mm | - | - | - |
| 1778027451 | 8.89° C | 90% | 1007.3 hPa | 3.3 mm | - | - | - |
| 1778027151 | 8.89° C | 90% | 1007.1 hPa | 3.05 mm | - | - | - |
| 1778026851 | 8.89° C | 90% | 1007.3 hPa | 2.03 mm | - | - | - |
| 1778026551 | 8.89° C | 90% | 1008.4 hPa | 2.03 mm | - | - | - |
| 1778026251 | 8.89° C | 90% | 1007.6 hPa | 2.03 mm | - | - | - |
| 1778025951 | 8.89° C | 90% | 1007.6 hPa | 2.03 mm | - | - | - |
| 1778025651 | 8.89° C | 90% | 1007.7 hPa | 2.54 mm | - | - | - |
| 1778025351 | 9.44° C | 90% | 1007.7 hPa | 2.29 mm | - | - | - |
| 1778025051 | 9.44° C | 90% | 1008.1 hPa | 2.29 mm | - | - | - |
| 1778024751 | 9.44° C | 90% | 1007.3 hPa | 3.05 mm | - | - | - |
| 1778024451 | 9.44° C | 89% | 1007.1 hPa | 4.32 mm | - | - | - |
| 1778024151 | 9.44° C | 89% | 1006.9 hPa | 4.83 mm | - | - | - |
* Rain latest hour (hover to see other rain measurements)
** Current wind speed in m/s (hover to see current wind gust speed)